Home   Weather   Malatya   Past weeks
Flag for Turkey

Past Weather in Malatya, Turkey — Yesterday and Last 2 Weeks

Now
61 °F

Partly sunny.


Feels Like: 61 °F
Forecast: 67 / 51 °F
Wind: 8 mph from Northeast

Location: Malatya / Erhac

Current Time: Oct 22, 2019 at 4:55:28 pm

Latest Report: Oct 22, 2019 at 3:50 pm


Visibility: N/A

Pressure: 30.12 "Hg (26.89 "Hg at 960m altitude)

Humidity: 77%

Dew Point: 54 °F

Location of MalatyaLocation

Past Weather in Malatya — Graph

°F

Malatya Temperature Yesterday

Maximum temperature yesterday: 57 °F (at 12:50 pm)
Minimum temperature yesterday: 48 °F (at 4:20 am)
Average temperature yesterday: 55 °F

High & Low Weather Summary for the Past Weeks

 TemperatureHumidityPressure
High84 °F (Oct 10, 3:50 pm)100% (Oct 21, 12:08 pm)30.36 "Hg (Oct 21, 12:08 pm)
Low39 °F (Oct 14, 5:20 am)17% (Oct 14, 2:20 pm)29.95 "Hg (Oct 7, 3:20 pm)
Average63 °F54%30.15 "Hg
* Reported Oct 7 3:20 pm — Oct 22 3:20 pm, Malatya. Weather by CustomWeather, © 2019

Note: Actual official high and low records may vary slightly from our data, if they occured in-between our weather recording intervals... More about our weather records

Advertising

Malatya Weather History for the Previous 24 Hours

Scroll right to see more
 ConditionsComfort  
Time TempWeatherWind HumidityBarometerVisibility
3:20 pm
Tue, Oct 22
61 °FSprinkles. Partly sunny.12 mph77%30.12 "HgN/A
2:50 pm63 °FPartly sunny.5 mph73%30.12 "HgN/A
2:20 pm63 °FPartly sunny.2 mph73%30.12 "HgN/A
1:50 pm61 °FPartly sunny.3 mph77%30.12 "HgN/A
1:20 pm61 °FPartly sunny.5 mph72%30.12 "HgN/A
12:50 pm61 °FPartly sunny.3 mph77%30.15 "HgN/A
12:20 pm61 °FPartly sunny.1 mph77%30.15 "HgN/A
11:50 am59 °FPartly sunny.5 mph88%30.15 "HgN/A
11:20 am57 °FMostly cloudy.3 mph94%30.15 "HgN/A
10:50 am57 °FMostly cloudy.3 mph94%30.15 "HgN/A
10:20 am57 °FMostly cloudy.2 mph88%30.15 "HgN/A
9:50 am55 °FSprinkles. Mostly cloudy.2 mph94%30.15 "HgN/A
9:20 am55 °FSprinkles. Mostly cloudy.2 mph94%30.15 "HgN/A
8:50 am55 °FSprinkles. Mostly cloudy.3 mph94%30.15 "Hg6 mi
8:20 am55 °FSprinkles. Mostly cloudy.3 mph94%30.15 "HgN/A
7:50 am54 °FSprinkles. Partly sunny.1 mph100%30.12 "HgN/A
7:20 am54 °FSprinkles. Partly sunny.2 mph94%30.12 "HgN/A
6:50 am52 °FBroken clouds.2 mph100%30.12 "HgN/A
6:20 am52 °FPartly cloudy.1 mph100%30.12 "HgN/A
5:50 am52 °FPartly cloudy.1 mph100%30.12 "HgN/A
5:20 am52 °FPartly cloudy.5 mph94%30.09 "HgN/A
4:50 am52 °FPartly cloudy.3 mph94%30.09 "HgN/A
4:20 am52 °FPartly cloudy.2 mph94%30.09 "HgN/A
3:50 am52 °FPartly cloudy.2 mph100%30.12 "HgN/A
3:20 am52 °FPartly cloudy.3 mph100%30.12 "HgN/A
2:50 am54 °FPartly cloudy.2 mph94%30.12 "HgN/A
2:20 am54 °FPartly cloudy.2 mph100%30.12 "HgN/A
1:50 am55 °FPartly cloudy.2 mph94%30.12 "HgN/A
1:20 am55 °FPartly cloudy.3 mph94%30.12 "HgN/A
12:50 am55 °FPartly cloudy.5 mph94%30.12 "HgN/A
12:20 am55 °FPartly cloudy.5 mph94%30.12 "HgN/A
11:50 pm
Mon, Oct 21
55 °FPassing clouds.5 mph94%30.12 "HgN/A
11:20 pm55 °FPassing clouds.5 mph94%30.12 "HgN/A
10:50 pm55 °FPassing clouds.7 mph94%30.12 "HgN/A
10:20 pm54 °FPassing clouds.5 mph100%30.12 "HgN/A
9:50 pm54 °FPassing clouds.3 mph100%30.12 "HgN/A
9:20 pm57 °FSprinkles. Passing clouds.3 mph88%30.12 "HgN/A
8:50 pm55 °FSprinkles. Passing clouds.3 mph94%30.12 "HgN/A
8:20 pm57 °FSprinkles. Passing clouds.5 mph88%30.12 "HgN/A
7:50 pm57 °FPassing clouds.5 mph94%30.12 "HgN/A
7:20 pm57 °FPassing clouds.2 mph94%30.12 "HgN/A
6:50 pm55 °FSprinkles. Passing clouds.3 mph100%30.12 "HgN/A
6:20 pm55 °FPassing clouds.3 mph100%30.12 "HgN/A
5:50 pm57 °FPassing clouds.6 mph94%30.09 "HgN/A
5:20 pm57 °FSprinkles. Partly sunny.5 mph88%30.12 "HgN/A
4:50 pm57 °FPartly sunny.7 mph88%30.09 "HgN/A
4:20 pm57 °FPartly sunny.6 mph88%30.12 "HgN/A
Weather by CustomWeather, © 2019

See weather overview